Total_Precipitation_Accumulation
0.38 0.23 0.26 0.24 0.21 0.21 0.22 0.27 0.29 0.30 0.27 0.23 0.23 0.25 0.31 0.26 0.20 0.17 0.17 0.18 0.22 0.31 0.38 0.39 0.41 0.49 0.52 0.48 0.41 0.37 0.36 0.40 0.48 0.56 0.64 0.68 0.70 0.79 0.95 1.02 1.11 1.07 1.02
0.45 0.25 0.26 0.25 0.25 0.24 0.22 0.25 0.28 0.28 0.27 0.23 0.20 0.24 0.33 0.27 0.22 0.19 0.18 0.21 0.25 0.30 0.32 0.33 0.38 0.42 0.40 0.36 0.35 0.35 0.33 0.38 0.54 0.74 0.90 0.89 0.92 0.97 1.10 1.22 1.39 1.39 1.13
0.58 0.41 0.30 0.27 0.25 0.25 0.24 0.25 0.26 0.26 0.29 0.27 0.22 0.20 0.21 0.18 0.16 0.16 0.17 0.20 0.28 0.33 0.32 0.31 0.33 0.32 0.30 0.30 0.31 0.33 0.37 0.46 0.71 1.02 1.39 1.56 1.35 1.29 1.28 1.29 1.30 1.16 1.21
0.53 0.51 0.37 0.33 0.29 0.25 0.26 0.28 0.30 0.29 0.28 0.25 0.22 0.20 0.18 0.18 0.18 0.19 0.20 0.23 0.32 0.38 0.38 0.33 0.33 0.31 0.29 0.29 0.31 0.35 0.42 0.56 0.86 1.20 1.85 1.96 1.92 1.91 1.52 1.28 1.17 1.09 1.30
0.46 0.45 0.44 0.37 0.33 0.30 0.29 0.32 0.33 0.34 0.31 0.30 0.29 0.26 0.25 0.23 0.23 0.26 0.30 0.34 0.37 0.40 0.42 0.40 0.38 0.38 0.33 0.31 0.33 0.39 0.47 0.63 1.02 1.40 1.86 2.36 2.74 2.40 1.84 1.47 1.29 1.23 1.36
0.50 0.47 0.44 0.43 0.42 0.42 0.41 0.41 0.39 0.38 0.36 0.37 0.36 0.33 0.32 0.33 0.34 0.38 0.45 0.49 0.49 0.49 0.53 0.51 0.49 0.43 0.37 0.36 0.38 0.43 0.56 0.75 0.99 1.36 1.89 2.57 2.56 2.29 1.98 1.74 1.51 1.44 1.43
0.54 0.58 0.48 0.52 0.52 0.53 0.55 0.51 0.49 0.45 0.44 0.44 0.43 0.39 0.38 0.40 0.43 0.48 0.55 0.57 0.56 0.60 0.61 0.57 0.49 0.40 0.36 0.36 0.41 0.49 0.63 0.81 0.97 1.56 2.05 2.44 2.34 2.14 2.03 1.93 1.80 1.66 1.55
0.57 0.55 0.56 0.56 0.59 0.59 0.65 0.70 0.68 0.60 0.57 0.55 0.54 0.49 0.44 0.43 0.45 0.52 0.59 0.61 0.60 0.59 0.56 0.54 0.49 0.43 0.41 0.42 0.45 0.56 0.67 0.70 0.79 1.39 1.93 2.10 1.85 1.90 2.06 1.92 1.83 1.69 1.58
0.69 0.69 0.76 0.80 0.81 0.84 0.85 0.86 0.88 0.79 0.73 0.67 0.62 0.55 0.49 0.49 0.51 0.55 0.64 0.69 0.68 0.60 0.55 0.52 0.50 0.45 0.44 0.45 0.46 0.54 0.61 0.72 0.79 1.14 1.68 2.08 1.63 1.75 2.06 1.96 1.77 1.71 1.62
1.16 1.15 1.18 1.20 1.16 1.04 0.98 0.99 0.96 0.90 0.82 0.74 0.65 0.60 0.60 0.63 0.70 0.79 0.71 0.71 0.71 0.68 0.63 0.62 0.56 0.49 0.50 0.49 0.51 0.57 0.64 0.64 0.65 1.02 1.59 1.68 1.60 1.93 2.20 2.03 1.80 1.77 1.63
1.79 1.75 1.63 1.56 1.42 1.40 1.30 1.10 1.15 1.08 1.02 0.94 0.85 0.77 0.79 0.87 1.05 1.14 0.94 0.97 0.92 0.90 0.86 0.85 0.80 0.74 0.69 0.63 0.67 0.72 0.72 0.62 0.81 1.18 1.78 1.86 2.05 2.25 2.44 2.30 2.04 1.93 1.82
2.26 2.16 1.90 1.95 1.91 1.73 1.58 1.54 1.54 1.38 1.36 1.34 1.34 1.14 1.19 1.50 1.63 1.44 1.45 1.38 1.33 1.27 1.15 1.12 1.08 0.95 0.83 0.81 0.94 0.98 0.75 0.75 0.93 1.22 1.57 1.86 2.13 2.43 2.54 2.37 2.16 2.04 2.08
2.25 2.09 2.19 2.37 2.26 2.25 2.33 2.25 2.06 1.98 1.93 1.79 1.81 1.65 1.73 1.74 1.65 1.67 1.79 1.74 1.64 1.54 1.53 1.54 1.36 1.15 1.16 1.24 1.25 1.14 1.00 1.04 1.07 1.23 1.53 1.83 2.10 2.52 2.71 2.51 2.32 2.26 2.28
2.52 2.28 2.33 2.37 2.40 2.54 2.62 2.64 2.61 2.54 2.47 2.30 2.21 1.95 2.08 2.15 2.16 2.14 2.27 2.27 2.24 2.22 2.23 2.12 1.90 1.74 1.59 1.56 1.51 1.48 1.36 1.30 1.41 1.61 1.80 1.84 2.00 2.39 2.71 2.72 2.52 2.42 2.36
3.11 2.83 2.67 2.79 2.69 2.66 2.85 2.96 2.78 2.92 2.86 2.91 2.81 2.48 2.50 2.53 2.52 2.70 2.67 2.75 2.67 2.81 2.74 2.53 2.26 2.13 2.00 1.75 1.64 1.65 1.65 1.62 1.68 1.75 1.91 1.99 2.02 2.26 2.64 2.86 2.78 2.64 2.68
3.55 3.34 3.05 2.98 3.03 2.92 3.06 3.27 3.16 3.02 3.11 3.14 3.19 2.97 2.93 2.96 2.99 3.03 3.05 3.10 2.91 2.87 2.90 2.77 2.47 2.35 2.21 1.99 1.73 1.65 1.67 1.84 1.87 1.78 1.94 2.07 2.02 2.08 2.41 2.84 3.06 3.17 3.26
3.72 3.45 3.37 3.18 3.41 3.54 3.74 3.68 3.63 3.61 3.62 3.57 3.50 3.51 3.38 3.35 3.41 3.30 3.41 3.46 3.31 3.19 3.13 3.06 2.91 2.65 2.47 2.35 2.20 2.04 1.92 1.92 2.05 2.15 2.16 2.25 2.29 2.26 2.41 2.68 2.97 3.20 3.35
3.65 3.64 3.75 3.51 3.58 3.81 3.82 3.78 3.88 4.06 4.11 4.00 3.86 3.88 3.77 3.79 3.87 3.96 3.78 3.58 3.47 3.37 3.35 3.47 3.27 2.94 2.81 2.83 2.70 2.36 2.07 2.11 2.20 2.25 2.27 2.34 2.52 2.44 2.48 2.47 2.61 2.87 3.13
3.57 3.56 3.76 3.94 3.76 3.95 4.05 4.11 4.28 4.42 4.56 4.47 4.34 4.21 4.18 4.18 4.13 4.24 4.13 3.93 3.77 3.67 3.64 3.39 3.37 3.26 3.21 3.12 2.73 2.50 2.19 2.10 2.17 2.15 2.20 2.28 2.50 2.61 2.64 2.42 2.51 2.83 3.04
3.65 3.71 3.81 4.15 4.15 4.42 4.49 4.33 4.45 4.51 4.63 4.65 4.69 4.62 4.69 4.72 4.58 4.54 4.36 4.19 4.11 4.01 3.88 3.70 3.67 3.60 3.38 3.22 2.77 2.54 2.34 2.12 2.08 2.11 2.10 2.18 2.24 2.28 2.38 2.42 2.46 2.40 2.64
3.90 4.03 4.02 4.16 4.41 4.57 4.70 4.67 4.82 4.82 4.78 4.94 5.16 5.14 5.24 5.28 5.08 4.99 4.84 4.69 4.44 4.17 4.04 3.94 3.77 3.61 3.34 3.22 3.05 2.77 2.37 2.05 2.05 2.03 1.96 2.05 2.09 2.05 2.13 2.21 2.39 2.35 2.24
4.05 4.18 4.38 4.53 4.56 4.68 5.12 5.50 5.78 6.08 6.10 6.04 6.15 6.14 5.95 5.81 5.70 5.51 5.44 5.18 4.79 4.49 4.18 3.93 3.74 3.47 3.21 3.19 3.21 3.27 2.81 2.38 1.92 1.66 1.71 1.75 1.76 1.78 1.88 2.00 2.07 2.12 2.06
3.83 4.06 4.27 4.57 4.95 5.44 6.05 6.44 6.69 6.98 7.10 6.88 6.62 6.41 6.14 5.94 5.79 5.42 5.20 5.08 4.80 4.34 4.04 3.85 3.65 3.42 3.19 3.10 3.07 3.31 3.10 2.67 2.20 1.88 1.66 1.56 1.59 1.72 1.79 1.91 1.95 1.90 1.82
3.39 3.74 4.13 4.49 5.11 5.99 6.66 7.08 7.42 7.50 7.50 7.37 7.09 6.62 6.08 5.70 5.37 5.05 4.78 4.50 4.25 3.93 3.69 3.47 3.35 3.28 3.19 2.99 2.95 2.81 2.61 2.45 2.43 2.17 1.89 1.72 1.68 1.70 1.68 1.64 1.66 1.72 1.74
3.13 3.49 3.94 4.36 5.04 5.73 6.38 6.94 7.40 7.53 7.46 7.25 6.80 6.22 5.59 5.08 4.64 4.25 3.99 3.75 3.52 3.26 3.05 2.86 2.81 2.89 2.94 2.86 2.82 2.78 2.65 2.53 2.42 2.25 2.09 2.01 1.96 1.83 1.69 1.61 1.58 1.58 1.56
2.73 3.07 3.53 3.98 4.55 5.18 5.62 6.17 6.51 6.68 6.57 6.17 5.64 5.03 4.61 4.26 3.92 3.54 3.25 3.03 2.78 2.55 2.40 2.31 2.26 2.30 2.44 2.50 2.55 2.55 2.54 2.62 2.56 2.51 2.34 2.21 2.16 2.01 1.85 1.72 1.64 1.61 1.54